sat.trackr.live / text

‹ back to catalog

STARLINK-34759

NORAD 65096 · 2025-167U

PAYLOAD ACTIVE UNKNOWN

§ Identity

Operator
Country
US
Launch date
2025-08-04
Launch site
AFETR
Launch vehicle
Mass (kg)
RCS (m²)

Purposes: comms

External: N2YO · Heavens-Above · Gunter

§ Orbital elements

Epoch: 2026-09-20T06:59:16.732896Z

Period
93.85 min
Inclination
53.1588°
Eccentricity
0.0001243
Mean motion
15.34408846 rev/d
Perigee alt
461.8 km
Apogee alt
463.5 km
Semi-major
6,840.8 km
B*
4.7323e-4
RAAN
194.9760°
Arg perigee
84.2614°
Mean anomaly
275.8530°
Rev number
6,338

§ Raw data

STARLINK-347591 65096U 25167U   26263.29116589  .00015650  00000+0  47323-3 0  99952 65096  53.1588 194.9760 0001243  84.2614 275.8530 15.34408846 63382

JSON: /api/v1/satellites/65096 · /tle

For live sub-satellite position, see the globe view (requires WebGL).

§ Visibility from observer

Set your observer location to see the next 7 days of passes ≥ 10°. The values pass through the URL so the page stays shareable.

No JS? Fill the form by hand. The geolocation button needs JavaScript.